This is the latest recevied weather packets stored in our database for station/object OE-11099. If no packets are shown the sender has not sent any weather packets the latest 10 day(s).
| Time | Temp. | Humidity | Pressure | Rain* | Wind** | Luminosity | Snow |
|---|---|---|---|---|---|---|---|
| 1787832679 | 33.33° C | 35% | 1008.4 hPa | 0 mm | - | 658 W/m² | - |
| 1787832306 | 32.78° C | 34% | 1008.5 hPa | 0 mm | - | 645 W/m² | - |
| 1787831705 | 32.22° C | 34% | 1008.6 hPa | 0 mm | - | 598 W/m² | - |
| 1787830879 | 32.22° C | 36% | 1008.7 hPa | 0 mm | - | 552 W/m² | - |
| 1787830505 | 32.78° C | 40% | 1008.7 hPa | 0 mm | - | 638 W/m² | - |
| 1787829905 | 32.78° C | 39% | 1009.1 hPa | 0 mm | - | 711 W/m² | - |
| 1787829079 | 32.22° C | 40% | 1009.2 hPa | 0 mm | - | 705 W/m² | - |
| 1787828706 | 32.78° C | 40% | 1009.2 hPa | 0 mm | - | 711 W/m² | - |
| 1787828106 | 32.22° C | 40% | 1009.1 hPa | 0 mm | - | 758 W/m² | - |
| 1787827278 | 32.22° C | 42% | 1009.4 hPa | 0 mm | - | 718 W/m² | - |
| 1787826905 | 31.67° C | 43% | 1009.6 hPa | 0 mm | - | 638 W/m² | - |
| 1787826306 | 31.11° C | 42% | 1009.8 hPa | 0 mm | - | 578 W/m² | - |
| 1787825479 | 30.56° C | 43% | 1009.9 hPa | 0 mm | - | 519 W/m² | - |
| 1787825106 | 31.11° C | 44% | 1010.1 hPa | 0 mm | - | 519 W/m² | - |
| 1787824506 | 31.11° C | 41% | 1010 hPa | 0 mm | - | 632 W/m² | - |
| 1787823679 | 31.11° C | 40% | 1010.2 hPa | 0 mm | - | 618 W/m² | - |
| 1787823306 | 31.11° C | 40% | 1010.1 hPa | 0 mm | - | 625 W/m² | - |
| 1787822705 | 30.56° C | 38% | 1010.2 hPa | 0 mm | - | 605 W/m² | - |
| 1787821879 | 30° C | 38% | 1010.5 hPa | 0 mm | - | 578 W/m² | - |
| 1787821505 | 29.44° C | 39% | 1010.6 hPa | 0 mm | - | 552 W/m² | - |
| 1787820906 | 28.89° C | 38% | 1010.8 hPa | 0 mm | - | 539 W/m² | - |
| 1787820079 | 28.89° C | 39% | 1010.8 hPa | 0 mm | - | 519 W/m² | - |
| 1787819706 | 28.33° C | 43% | 1011 hPa | 0 mm | - | 505 W/m² | - |
| 1787819106 | 27.78° C | 41% | 1011.2 hPa | 0 mm | - | 485 W/m² | - |
| 1787818279 | 26.67° C | 43% | 1011.7 hPa | 0 mm | - | 459 W/m² | - |
* Rain latest hour (hover to see other rain measurements)
** Current wind speed in m/s (hover to see current wind gust speed)